Regional Weather Roundup
Issued by NWS

Home | Current Version | Previous Version | Text Only | Print | Product List | Glossary On
Versions: 1 2 3 4 5 6 7 8 9 10 11 12 13 14 15 16 17 18 19 20 21 22 23 24 25 26 27 28
000
ASPQ40 PGUM 202212
RWRPQ
WEATHER ROUNDUP FOR THE MARIANAS AND MICRONESIA
NATIONAL WEATHER SERVICE TIYAN GU
800 AM CHST MON AUG 21 2017

GUZ001>004-202300-
MARIANA ISLANDS-

CITY           SKY/WX    TMP DP  RH WIND       PRES   REMARKS
GUAM AIRPORT   HVY RAIN  75  75 100 CALM      29.87R VSB 1
ANDERSEN AFB   RAIN      75  73  94 NW3       29.92R FOG
ROTA AIRPORT   PTSUNNY   79  75  89 NE7       29.85R
TINIAN AP      PTSUNNY   81  77  89 NE7       29.82R
SAIPAN AP      MOSUNNY   84  77  79 N5        29.83R HX  94

$$

PMZ161-202300-
REPUBLIC OF PALAU-

CITY           SKY/WX    TMP DP  RH WIND       PRES   REMARKS
KOROR AP       CLOUDY    79  75  89 S3        29.79R
KOROR WSO      LGT RAIN  81  77  89 W7        29.80R

$$

PMZ171>174-202300-
FEDERATED STATES OF MICRONESIA-

CITY           SKY/WX    TMP DP  RH WIND       PRES   REMARKS
YAP AIRPORT    CLOUDY    79  77  94 VRB3      29.80R
CHUUK AP       PTSUNNY   84  77  79 VRB5      29.81R HX  94
POHNPEI AP     NOT AVBL
POHNPEI WSO    MOSUNNY   88  75  66 E3        29.86R HX  97
KOSRAE AP      CLOUDY    84  75  74 SW16      29.81  HX  92

$$

PMZ181-202300-
REPUBLIC OF THE MARSHALL ISLANDS-

CITY           SKY/WX    TMP DP  RH WIND       PRES   REMARKS
KWAJALEIN AP   SUNNY     86  73  66 E7        29.85S HX  93
MAJURO AP      MOSUNNY   84  75  74 VRB3      29.83  HX  92
MAJURO WSO     MOSUNNY   84  75  74 VRB3      29.82S HX  92

$$





USA.gov is the U.S. government's official web portal to all federal, state and local government web resources and services.